Погода Байрамалы

Погода Байрамалы : погода сейчас, прогноз погоды и архив. Всё, что Вы хотите узнать о погоде Байрамалы!

Поиск расширенной информации на нашем сайте:

Другие новости

Новости СМИ2

Главная страница сайта

Новости сайта

03.07.2017

Напоминаем, что на нашем специализированном сайте Метеоцентр.Азия вы можете получить высокодетализированные автоматические прогнозы погоды по пунктам России, СНГ и мира в авиационном формате (включающие направление и скорость ветра, видимость, явления погоды, количество и форму облачности, нижнюю и верхнюю границу облачности).


Погода Байрамалы - сегодня

Время (UTC), дата Ветер
(°,м/с) 
Видим.   Явления Облачность Т
(°С)
Тd
(°С)
f(%) Тe
(°С)
Pmin
(гПа)
dP
(гПа)
Po
(мм)
O2
(г/м3)
Тmin Tmax R s Состояние
почвы
18 14.08.18 350 (С) 4000 м    ясно 
+29.8 +5.1 21 +30  1007.8  1.2  736  267    +38.4       
21 14.08.18 010 (С) 4000 м    ясно 
+27.6 +5.5 24 +28  1007.8  -0.2  736  268           
00 15.08.18 350 (С) 4000 м    ясно 
+24.8 +4.8 27 +25  1007.9  -0.1  736  271           
03 15.08.18 тихо ()   4000 м    ясно 
+25.4 +5.8 28 +25  1009.2  1.3  752  276           
06 15.08.18 020 (С) 4000 м    ясно 
+33.7 +5.8 18 +34  1009.2  0.7  737  264  +24.1         
09 15.08.18 350 (С) 4000 м    ясно 
+38.4 +3.2 11 +38  1007.6  -1.2  736  260           
12 15.08.18 040 (СВ) 4000 м    ясно 
+38.8 +6.5 14 +39  1006.2  -1.3  735  258           
15 15.08.18 350 (С) 4000 м    ясно 
+34.4 +10.9 24 +37  1006.5  735  261    +39.6       
18 15.08.18 тихо ()   4000 м    ясно 
+30.4 +8.4 25 +30  1008  1.1  736  265    +39.6       
21 15.08.18 350 (С) 4000 м    ясно 
+28.2 +5.3 23 +28  1008.3  736  268           
00 16.08.18 350 (С) 4000 м    ясно 
+25.7 +5.5 27 +26  1008.8  0.4  736  270           
03 16.08.18 340 (С) 4000 м    ясно 
+25.9 +6.7 29 +26  1009.7  0.8  737  270           
06 16.08.18 340 (С) 4000 м    ясно 
+35.1 +7.6 18 +35  1010.4  1.5  738  262  +24.9         
09 16.08.18 340 (С) 4000 м    ясно 
+38.6 +5.3 13 +39  1009.5  -0.6  738  260           
12 16.08.18 350 (С) 4000 м    ясно 
+39 +6.5 14 +39  1007.8  -1.6  737  259           
15 16.08.18 тихо ()   4000 м    ясно 
+34.6 +13 27 +40  1008  -0.1  736  261    +39.9       
18 16.08.18 310 (СЗ) 4000 м    ясно 
+30.9 +10.9 29 +34  1009.2  0.7  737  265    +39.9       
21 16.08.18 320 (СЗ) 4000 м    ясно 
+28.7 +8.2 28 +29  1008.7  -0.6  737  267           
00 17.08.18 030 (СВ) 4000 м    ясно 
+26 +7.4 31 +26  1008.5  -0.4  736  270           
03 17.08.18 040 (СВ) 4000 м    ясно 
+26.1 +7.3 30 +26  1009  0.5  737  270           
06 17.08.18 тихо ()   4000 м    ясно 
+33.7 +11.5 26 +37  1009  0.6  737  262  +24.4         
09 17.08.18 060 (СВ) 4000 м    ясно 
+38 +8.4 17 +38  1007.1  -1.5  736  259           
12 17.08.18 310 (СЗ) 4000 м    ясно 
+38.1 +8.2 16 +38  1005.6  -1.5  735  258           
15 17.08.18 тихо ()   4000 м    ясно 
+32.8 +12.3 29 +38  1005.8  -0.2  735  262    +39.1       
18 17.08.18 030 (СВ) 4000 м    ясно 
+29.7 +3.2 18 +30  1006.1  735  266    +39.1       
Время (UTC), дата Ветер
(°,м/с) 
Видим.   Явления Облачность Т
(°С)
Тd
(°С)
f(%) Тe
(°С)
Pmin
(гПа)
dP
(гПа)
Po
(мм)
O2
(г/м3)
Тmin Tmax R s Состояние
почвы

Для получения пояснительной информации подведите курсор к названию столбца.

ПОГОДА Байрамалы - архив

Всё, что Вы хотите узнать о погоде Байрамалы - удобно и подробно!

Выберите нужную дату (начиная с 1 января 2015* года) и нажмите кнопку "Найти".
Будут отображены архивные сводки погоды по пункту Байрамалы, начиная с указанной даты.


Отображать данные в формате CSV (для использования в таблицах Excel)


Внимание! Наш архив погоды предназначен исключительно для личного некоммерческого использования в познавательных целях. Если Вам необходимы официальные справки о состоянии погоды (для производственных, юридических, коммерческих и т.п. целей), обращайтесь в органы Росгидромета.

*Примечание: данная дата относится к архиву по метеостанциям СССР (Россия, СНГ, Балтия).
Архив по метеостанциям Зарубежной Европы и Азии (кроме Китая) хранится 10 дней, по другим регионам земного шара (Китай, Африка, Америка, Австралия, Океания) - 1 день.

Байрамалы - район местоположения метеостанции


Название, широта, долгота, высота метеостанции:
Байрамалы 37.6°ш. 62.2°д. 240 м над ур. моря [Туркменистан]

Дополнительная информация

В oтличие oт бoльшинства пoгoдных сайтoв мы публикуем пoдрoбную метеoинфoрмацию в детальнoм прoфессиoнальнoм фoрмате.

Характеристики температуры и влажнoсти вoздуха измеряются на высoте 2 м в тени вдали oт зданий и деревьев.
Скoрoсть ветра измеряется на высoте 10 м (на урoвне рoста челoвека скoрoсть ветра ниже в 1.5-2 раза). Если метеoстанция нахoдится в гoрoде или в лесу, тo скoрoсть ветра занижена на 2-4 м/с пo сравнению с oткрытым местoм. Скoрoсть ветра над акватoриями крупных рек и oзёр, а также на вершинах хoлмoв на 2-5 м/с выше, чем в oбычных услoвиях.
Атмoсфернoе давление в разных тoчках местнoсти мoжет значительнo oтличаться oт давления на метеoстанции, в зависимoсти oт услoвий рельефа (при пoдъёме на 10 м давление пoнижается примернo на 1 мм рт.ст.).